Вернуться в каталог

SL-12 R/B(2)

АктивенGEO
NORAD 15693·ROCKET BODY·🇷🇺 Russia

Запущен Jun 22, 1984 с Baikonur Cosmodrome

Loading…

TLE

СвежийSource: Space-Track

Эпоха: Sep 14, 2026, 04:53 UTC

1 15693U 84063F   26257.20401150 -.00000132  00000-0  00000-0 0  9997
2 15693   6.9007 305.5301 0017953 267.2358 146.2496  1.03290676127997

Отслеживайте SL-12 R/B(2) в реальном времени с AllMySat

Download on the App Store